Weather in Plakhtievka

Ukraine / Odesa District     46°05′39″N   29°43′12″E
temp.,
°C
wind,
m/s
gust,
m/s
humid.,
%
clouds,
%
prec.,
mm/h
press.,
hPa
HPBL,
m
6 march, sat
sat623:00+7s476892 0.0 1013154
02:00+6nnw8148595 0.0 1015463
05:00+4nnw9137867 0.0 1017827
08:00+2n8137383 0.0 1020777
11:00+4n91249100 0.0 10231229
14:00+5n7936100 0.0 10251867
17:00+4nnw783783 0.0 10262005
20:00+1n375141 0.0 1028268
7 march, sun
sun723:00−1nne12590 0.0 103021
02:00−1wsw33560 0.0 103051
05:00−1w35630 0.0 1029105
08:00+1w35560 0.0 1028265
11:00+5wsw68390 0.0 10261292
14:00+7wsw79360 0.0 10241482
17:00+7sw68410 0.0 10201337
20:00+4sw512540 0.0 1020326
8 march, mon
mon823:00+2sw496525 0.0 1019225
02:00+1sw487218 0.0 1017163
05:000sw35770 0.0 1015121
08:00+2wsw23700 0.0 1016161
11:00+7nnw22440 0.0 1015690
14:00+9nw113250 0.0 10141688
17:00+9w123380 0.0 10131943
20:00+5s335550 0.0 101572
9 march, tue
tue923:00+4nw355636 0.0 1016133
02:00+2n6108466 0.0 1018577
05:00+1n497661 0.0 1018411
08:00+1n585738 0.0 1020636
11:00+4nnw45380 0.0 10211248
14:00+6nnw45330 0.0 10211734
17:00+5n453533 0.0 10211772
20:00+2ne375367 0.0 1023287
10 march, wed
wed1023:00+1ene4860100 0.0 1024295
02:00−1ene476398 0.0 1024263
05:00−1ene476396 0.0 1024262
08:000e466499 0.0 1024560
11:00+2e4451100 0.0 1024929
14:00+3e4348100 0.0 10241131
17:00+1e445291 0.0 1023768
20:000e245395 0.0 1024225